Home   Weather   São Luis   Past weeks

Flag for Brazil Past Weather in São Luis, Maranhão, Brazil — Yesterday and Last 2 Weeks

Now
82 °F

Partly sunny.


Feels Like: 89 °F
Forecast: 78 / 86 °F
Wind: 10 mph from Northeast

Location: Sao Luiz Aeroporto

Current Time: Jan 17, 2017 at 10:07:55 am

Latest Report: Jan 17, 2017 at 9:00 am


Visibility: N/A

Pressure: 29.83 "Hg

Humidity: 79%

Dew Point: 75 °F

Location of São LuisLocation

Past Weather in São Luis — Graph

°F

São Luis Temperature Yesterday

Maximum temperature yesterday: 86 °F (at 9:00 am)
Minimum temperature yesterday: 79 °F (at 12:00 am)
Average temperature yesterday: 82 °F

High & Low Weather Summary for the Past Weeks

 TemperatureHumidityPressure
High93 °F (Jan 5, 2:00 pm)100% (Jan 9, 7:41 am)29.92 "Hg (Jan 9, 7:41 am)
Low32 °F (Jan 14, 10:00 am)19% (Jan 14, 12:00 pm)29.74 "Hg (Jan 13, 5:00 pm)
Average80 °F76%29.83 "Hg
* Reported Jan 2 9:00 am — Jan 17 9:00 am, São Luis, Weather by CustomWeather, © 2017

Note: Actual official high and low records may vary slightly from our data, if they occured in-between our weather recording intervals... More about our weather records

Advertising

São Luis Weather History for the Previous 24 Hours

Scroll right to see more
 ConditionsComfort  
Time TempWeatherWind HumidityBarometerVisibility
9:00 am
Tue, Jan 17
82 °FPartly sunny.10 mph79%29.83 "HgN/A
8:00 am81 °FBroken clouds.9 mph79%29.83 "HgN/A
7:00 am81 °FPartly sunny.10 mph79%29.80 "HgN/A
6:00 am79 °FScattered clouds.8 mph84%29.80 "HgN/A
5:00 am81 °FLight rain. Passing clouds.9 mph79%29.77 "HgN/A
4:00 am81 °FPassing clouds.9 mph74%29.77 "HgN/A
3:00 am79 °FPassing clouds.5 mph84%29.77 "HgN/A
2:00 am81 °FPassing clouds.8 mph74%29.77 "HgN/A
1:00 am81 °FPassing clouds.7 mph79%29.80 "HgN/A
12:00 am81 °FPassing clouds.10 mph74%29.80 "HgN/A
11:00 pm
Mon, Jan 16
81 °FPassing clouds.10 mph79%29.83 "HgN/A
10:00 pm79 °FPassing clouds.7 mph84%29.83 "HgN/A
9:00 pm81 °FPassing clouds.7 mph79%29.83 "HgN/A
8:00 pm79 °FPassing clouds.10 mph84%29.80 "HgN/A
7:00 pm81 °FPassing clouds.12 mph79%29.80 "HgN/A
6:00 pm82 °FPartly sunny.18 mph70%29.77 "HgN/A
5:00 pm82 °FPartly sunny.14 mph74%29.77 "HgN/A
4:00 pm84 °FScattered clouds.23 mph66%29.74 "HgN/A
3:00 pm84 °FPartly sunny.14 mph70%29.77 "HgN/A
2:00 pm86 °FPartly sunny.13 mph62%29.80 "HgN/A
1:00 pm84 °FPartly sunny.17 mph66%29.83 "HgN/A
12:00 pm84 °FPartly sunny.18 mph70%29.83 "HgN/A
11:00 am86 °FPartly sunny.13 mph62%29.86 "HgN/A
10:00 am86 °FPartly sunny.13 mph62%29.86 "HgN/A
Weather by CustomWeather, © 2017

See weather overviewHow to use our weather pages